[[{"header":{"parameterUnit":"m.s-1","parameterCategory":1,"la1":30.2991,"la2":30.254,"lo1":-89.0895,"lo2":-89.0444,"dy":0.0017,"dx":0.0017,"nx":28,"ny":28,"refTime":"2024-07-06T03:00:00:Z","depth":0,"parameterNumber":2,"parameterNumberName":"U-component_of_WINDS"},"data":[0,0,0,0,0,0,0,0,0,0,0,0,0,0,0,0,0,0,0,0,0,0,0,0,0,0,0,0,0,0,0,0,0,0,0,0,0,0,0,0,0,0,0,0,0,0,0,0,0,0,0,0,0,0,0,0,0,0,-3.2197,-3.2198,0,-3.2304,-3.2306,-3.2307,-3.2247,-3.2244,-3.2241,-3.2238,-3.2347,-3.2352,-3.2358,0,0,0,0,0,0,0,0,0,0,0,0,0,-3.1935,-3.1941,-3.2197,-3.2198,-3.22,-3.2304,-3.2306,-3.2307,-3.2248,-3.2244,-3.2241,-3.2237,-3.2345,-3.2352,-3.2359,0,0,0,0,0,0,0,0,0,0,0,0,0,-3.2047,-3.1942,-3.2197,-3.2182,-3.2182,-3.2304,-3.2306,-3.2308,-3.2248,-3.2244,-3.224,-3.2235,-3.2343,-3.2351,-3.236,-3.2501,0,0,-3.2385,-3.2389,0,0,0,0,0,0,0,0,-3.204,-3.2056,-3.2183,-3.2184,-3.2184,-3.2258,-3.2253,-3.2372,-3.225,-3.2223,-3.2238,-3.2233,-3.2321,-3.2331,-3.2361,-3.2506,-3.251,-3.2386,-3.2391,-3.2395,-3.2397,0,0,0,0,0,0,0,-3.2033,-3.2051,-3.2239,-3.2185,-3.2185,-3.2169,-3.218,-3.2276,-3.2296,-3.2225,-3.2221,-3.2235,-3.232,-3.2353,-3.2363,-3.2512,-3.2386,-3.2393,-3.2399,-3.2402,-3.2772,-3.2777,0,0,0,0,0,0,-3.2026,-3.2045,-3.2236,-3.2242,-3.21,-3.2178,-3.219,-3.2239,-3.2294,-3.2299,-3.2239,-3.2232,-3.234,-3.2353,-3.2366,-3.2531,-3.2395,-3.2403,-3.2408,-3.2768,-3.2774,-3.2779,0,0,0,0,0,0,-3.2021,-3.2044,-3.2232,-3.2143,-3.2165,-3.2187,-3.2242,-3.2243,-3.2275,-3.2304,-3.2307,-3.2268,-3.2337,-3.2354,-3.2467,-3.2534,-3.2407,-3.2414,-3.2762,-3.277,-3.2776,-3.2864,0,0,0,0,0,0,-3.2014,-3.2042,-3.2097,-3.2145,-3.2171,-3.2331,-3.2246,-3.2248,-3.229,-3.2282,-3.2333,-3.2337,-3.2335,-3.2454,-3.2475,-3.2543,-3.2421,-3.2756,-3.2765,-3.2774,-3.2855,-3.2873,-3.2889,0,0,0,0,0,-3.2005,-3.2119,-3.2101,-3.2124,-3.224,-3.2336,-3.235,-3.2346,-3.2296,-3.235,-3.2368,-3.2336,-3.2524,-3.2466,-3.2489,-3.2561,-3.2752,-3.2763,-3.2773,-3.2847,-3.287,-3.2888,0,0,0,0,0,0,-3.2079,-3.2125,-3.2105,-3.2238,-3.2283,-3.2325,-3.2394,-3.237,-3.243,-3.242,-3.2412,-3.2424,-3.2539,-3.2562,-3.2497,-3.2698,-3.263,-3.2646,-3.2679,-3.27,-3.2716,-3.2707,-3.2428,0,0,0,0,0,-3.2111,-3.2186,-3.2222,-3.2335,-3.2359,-3.2373,-3.2414,-3.2407,-3.2453,-3.2472,-3.2498,-3.2544,-3.2612,-3.2658,-3.2723,-3.2859,-3.2867,-3.2919,-3.2936,-3.295,-3.2963,-3.3031,-3.3053,-3.2814,-3.2814,-3.2814,0,0,-3.2178,-3.2212,-3.226,-3.2351,-3.2385,-3.246,-3.2389,-3.2473,-3.2528,-3.2485,-3.259,-3.2612,-3.2662,-3.2785,-3.284,-3.2807,-3.3031,-3.2964,-3.2974,-3.298,-3.3044,-3.3067,-3.3087,-3.2821,-3.282,-3.2819,0,0,-3.2336,-3.2372,-3.2468,-3.2503,-3.2556,-3.2564,-3.2587,-3.2632,-3.2644,-3.2751,-3.2718,-3.2783,-3.2904,-3.2939,-3.2972,-3.3142,-3.3112,-3.3164,-3.325,-3.3317,-3.3336,-3.3352,-3.3408,-3.3429,-3.3177,-3.3177,-3.3177,0,-3.2412,-3.2526,-3.252,-3.2606,-3.2645,-3.2609,-3.2704,-3.2739,-3.281,-3.2837,-3.2799,-3.2946,-3.2978,-3.3106,-3.3147,-3.3177,-3.32,-3.3156,-3.3334,-3.335,-3.3366,-3.3419,-3.344,-3.3183,-3.3182,-3.3181,-3.3181,0,-3.2613,-3.2693,-3.2764,-3.2832,-3.288,-3.2971,-3.2977,-3.3026,-3.3014,-3.3025,-3.3132,-3.3168,-3.3238,-3.3269,-3.3259,-3.3395,-3.3372,-3.3335,-3.3265,-3.3394,-3.3444,-3.3464,-3.3191,-3.3189,-3.3187,-3.3186,0,0,-3.2821,-3.2884,-3.291,-3.2939,-3.2993,-3.3053,-3.3141,-3.3209,-3.3248,-3.3299,-3.3369,-3.3471,-3.3435,-3.3473,-3.3467,-3.3526,-3.3652,-3.3481,-3.3482,-3.3507,-3.3799,-3.3823,-3.3847,-3.3634,-3.3638,-3.3641,-3.3793,0,-3.298,-3.3133,-3.3129,-3.327,-3.334,-3.3306,-3.3382,-3.3422,-3.3435,-3.3495,-3.3509,-3.3579,-3.3529,-3.3551,-3.3609,-3.3625,-3.371,-3.3614,-3.3696,-3.3699,-3.368,-3.3874,-3.3901,-3.4043,-3.3813,-3.3816,-3.3819,0,-3.3185,-3.324,-3.3388,-3.3428,-3.3458,-3.3526,-3.3586,-3.3645,-3.3689,-3.3694,-3.3736,-3.3719,-3.3805,-3.3736,-3.3851,-3.3786,-3.382,-3.3833,-3.3838,-3.3842,-3.3764,-3.3879,-3.4088,-3.4107,-3.385,-3.3847,-3.3845,0,-3.3315,-3.3428,-3.3529,-3.3555,-3.3606,-3.3654,-3.3677,-3.3717,-3.3757,-3.381,-3.3834,-3.3897,-3.393,-3.3978,-3.3977,-3.3928,-3.4093,-3.4025,-3.4096,-3.4096,-3.413,-3.4127,-3.4342,-3.4159,-3.4158,-3.4158,-3.4158,0,-3.349,-3.3581,-3.3588,-3.365,-3.3749,-3.3744,-3.3842,-3.386,-3.3895,-3.3959,-3.3934,-3.3994,-3.3992,-3.4052,-3.4052,-3.4145,-3.4162,-3.4166,-3.4164,-3.4165,-3.4164,-3.4184,-3.4173,-3.4164,-3.4162,-3.4161,-3.416,0,-3.3651,-3.366,-3.3768,-3.3807,-3.3818,-3.3889,-3.3921,-3.3979,-3.399,-3.407,-3.4088,-3.4104,-3.4173,-3.4178,-3.4258,-3.4258,-3.437,-3.436,-3.4354,-3.4351,-3.442,-3.4412,-3.4653,-3.4682,-3.4484,-3.4486,-3.4487,0,-3.376,-3.3828,-3.3874,-3.3914,-3.394,-3.4007,-3.4047,-3.4044,-3.4086,-3.414,-3.419,-3.4257,-3.431,-3.4421,-3.4438,-3.4499,-3.4487,-3.4567,-3.4496,-3.4494,-3.4482,-3.4476,-3.4481,-3.458,-3.4582,-3.4584,-3.4585,0,-3.395,-3.395,-3.401,-3.407,-3.4118,-3.4166,-3.421,-3.4244,-3.4246,-3.4295,-3.4365,-3.4406,-3.4487,-3.4551,-3.461,-3.4632,-3.4608,-3.4608,-3.4627,-3.4627,-3.4619,-3.4619,-3.4387,-3.4602,-3.46,-3.4599,-3.4598,-3.4597,-3.4085,-3.4142,-3.4182,-3.4248,-3.4281,-3.4322,-3.4376,-3.4393,-3.4452,-3.4517,-3.4512,-3.4588,-3.4627,-3.4703,-3.473,-3.4788,-3.476,-3.4789,-3.4795,-3.4801,-3.4806,-3.4614,-3.4799,-3.4799,-3.4799,-3.4798,-3.4798,0,-3.4269,-3.4293,-3.4354,-3.4415,-3.4466,-3.4441,-3.4487,-3.4531,-3.4598,-3.4638,-3.4689,-3.4768,-3.483,-3.4852,-3.4912,-3.4954,-3.4945,-3.497,-3.4964,-3.4969,-3.483,-3.4805,-3.4976,-3.4976,-3.4976,-3.4976,-3.4976,-3.4976,-3.4371,-3.4465,-3.447,-3.4579,-3.4602,-3.4677,-3.4705,-3.4741,-3.4772,-3.4861,-3.4912,-3.4927,-3.4958,-3.5019,-3.5074,-3.5079,-3.51,-3.5129,-3.5129,-3.4998,-3.4979,-3.4962,-3.4939,-3.5135,-3.5135,-3.5262,-3.5264,-3.5265]},{"header":{"parameterUnit":"m.s-1","parameterCategory":1,"la1":30.2991,"la2":30.254,"lo1":-89.0895,"lo2":-89.0444,"dy":0.0017,"dx":0.0017,"nx":28,"ny":28,"refTime":"2024-07-06T03:00:00:Z","depth":0,"parameterNumber":3,"parameterNumberName":"V-component_of_WINDS"},"data":[0,0,0,0,0,0,0,0,0,0,0,0,0,0,0,0,0,0,0,0,0,0,0,0,0,0,0,0,0,0,0,0,0,0,0,0,0,0,0,0,0,0,0,0,0,0,0,0,0,0,0,0,0,0,0,0,0,0,0.8126,0.8125,0,0.807,0.807,0.8069,0.8001,0.8,0.7999,0.7998,0.7939,0.7939,0.7938,0,0,0,0,0,0,0,0,0,0,0,0,0,0.8171,0.8171,0.8126,0.8125,0.8124,0.807,0.807,0.8069,0.8001,0.8,0.7999,0.7997,0.794,0.7939,0.7938,0,0,0,0,0,0,0,0,0,0,0,0,0,0.8137,0.8171,0.8126,0.8084,0.808,0.8071,0.807,0.8069,0.8001,0.8,0.7998,0.7997,0.794,0.7939,0.7938,0.7965,0,0,0.7936,0.7935,0,0,0,0,0,0,0,0,0.8139,0.8136,0.8091,0.8087,0.8082,0.8041,0.8064,0.8034,0.8002,0.8031,0.7998,0.7996,0.7974,0.7971,0.7964,0.7962,0.7959,0.7935,0.7935,0.7935,0.7934,0,0,0,0,0,0,0,0.8142,0.8138,0.8104,0.809,0.8085,0.8068,0.8061,0.8058,0.8012,0.8029,0.8024,0.8018,0.7972,0.7965,0.7962,0.7959,0.7936,0.7935,0.7934,0.7934,0.7976,0.7978,0,0,0,0,0,0,0.8151,0.814,0.8106,0.8102,0.8108,0.8068,0.8061,0.8056,0.8012,0.8004,0.8019,0.8015,0.7967,0.7963,0.7959,0.7988,0.7935,0.7934,0.7933,0.7974,0.7976,0.7978,0,0,0,0,0,0,0.8152,0.8148,0.8108,0.812,0.8113,0.8069,0.8064,0.8056,0.8048,0.8005,0.7997,0.8021,0.7965,0.7961,0.7964,0.7985,0.7933,0.7933,0.7973,0.7975,0.7977,0.8046,0,0,0,0,0,0,0.8154,0.8149,0.8159,0.8121,0.8113,0.8114,0.8065,0.8056,0.8047,0.8041,0.8004,0.7997,0.7964,0.7966,0.7963,0.7983,0.7932,0.797,0.7974,0.7977,0.8042,0.8051,0.8059,0,0,0,0,0,0.8155,0.8181,0.816,0.8156,0.8125,0.8116,0.8111,0.8074,0.8049,0.8059,0.8031,0.7998,0.7983,0.7967,0.7963,0.7983,0.7969,0.7973,0.7976,0.8038,0.8049,0.8058,0,0,0,0,0,0,0.8223,0.8175,0.8152,0.8165,0.8145,0.8104,0.8115,0.8086,0.8072,0.8067,0.802,0.8012,0.8021,0.8002,0.7985,0.8007,0.7971,0.7974,0.802,0.8029,0.8037,0.8043,0.7931,0,0,0,0,0,0.8239,0.8236,0.8194,0.821,0.8201,0.816,0.8155,0.8127,0.8104,0.8096,0.8068,0.8046,0.8037,0.8032,0.802,0.8038,0.803,0.805,0.8059,0.8065,0.8069,0.8078,0.8087,0.799,0.799,0.799,0,0,0.8273,0.8247,0.8248,0.8223,0.8204,0.8202,0.8154,0.8153,0.8151,0.8095,0.8097,0.8076,0.8049,0.806,0.8064,0.8045,0.8094,0.807,0.8076,0.8076,0.8083,0.8092,0.81,0.7993,0.7992,0.7992,0,0,0.8334,0.8314,0.8325,0.8307,0.8279,0.8252,0.8255,0.8218,0.8202,0.8204,0.8162,0.8158,0.8142,0.8125,0.8114,0.8168,0.8137,0.8165,0.8209,0.8218,0.8226,0.8232,0.8252,0.826,0.8169,0.8169,0.8169,0,0.838,0.8376,0.8334,0.8337,0.8327,0.8277,0.8288,0.8272,0.8242,0.8237,0.8216,0.8195,0.8173,0.818,0.8193,0.8186,0.8187,0.817,0.8228,0.8234,0.8239,0.8258,0.8266,0.8173,0.8172,0.8172,0.8172,0,0.8434,0.8431,0.8444,0.8417,0.8408,0.8415,0.8374,0.837,0.8343,0.8318,0.832,0.8292,0.8274,0.8273,0.8246,0.8276,0.8265,0.8237,0.82,0.8253,0.827,0.8277,0.8178,0.8177,0.8176,0.8175,0,0,0.8538,0.8487,0.8493,0.848,0.8445,0.8442,0.8446,0.843,0.8428,0.8408,0.8411,0.8398,0.8372,0.836,0.833,0.8338,0.8383,0.8308,0.8307,0.8324,0.8415,0.8438,0.8447,0.8362,0.8363,0.8364,0.8418,0,0.8594,0.8599,0.8562,0.8577,0.8574,0.8525,0.8529,0.8508,0.8484,0.8477,0.845,0.8443,0.8407,0.84,0.8405,0.8377,0.8401,0.8372,0.8364,0.8364,0.8375,0.8456,0.8481,0.8533,0.8424,0.8425,0.8426,0,0.8661,0.8646,0.8661,0.8626,0.8623,0.8627,0.8609,0.8603,0.8578,0.8559,0.8546,0.8512,0.8513,0.8477,0.8478,0.8459,0.8453,0.8438,0.8439,0.8439,0.84,0.8459,0.8549,0.8558,0.8436,0.8435,0.8434,0,0.8737,0.872,0.8727,0.8717,0.8676,0.868,0.8663,0.8636,0.8628,0.8612,0.8606,0.859,0.8581,0.8569,0.8531,0.8508,0.8537,0.8497,0.8522,0.8523,0.8532,0.8532,0.8624,0.8525,0.8525,0.8525,0.8525,0,0.8805,0.8816,0.8761,0.8766,0.8777,0.8733,0.8745,0.8723,0.8699,0.8698,0.8654,0.8654,0.8603,0.8598,0.8568,0.8573,0.8569,0.8555,0.8547,0.856,0.8562,0.8557,0.8553,0.8527,0.8527,0.8526,0.8526,0,0.8893,0.8856,0.8861,0.8821,0.8811,0.8822,0.8787,0.8789,0.8762,0.8761,0.8759,0.8716,0.8706,0.8667,0.8648,0.8628,0.8644,0.8628,0.8653,0.8649,0.8676,0.8675,0.8769,0.878,0.8673,0.8674,0.8675,0,0.894,0.8948,0.8909,0.8905,0.889,0.8885,0.8877,0.8833,0.8827,0.8798,0.8804,0.8791,0.8779,0.8766,0.8733,0.8718,0.8702,0.8736,0.87,0.8712,0.8704,0.8705,0.8706,0.8745,0.8746,0.8747,0.8748,0,0.9027,0.9009,0.8999,0.8984,0.8976,0.8961,0.8944,0.8943,0.8894,0.8889,0.8879,0.887,0.8851,0.8839,0.8818,0.8799,0.8766,0.8759,0.8765,0.8779,0.8794,0.8788,0.8677,0.8758,0.8757,0.8756,0.8756,0.8755,0.9097,0.9102,0.9076,0.9067,0.9049,0.9034,0.9035,0.9007,0.8998,0.898,0.8954,0.8948,0.8921,0.8891,0.8874,0.8869,0.885,0.8857,0.8859,0.8862,0.8869,0.8794,0.8864,0.8864,0.8864,0.8863,0.8863,0,0.9184,0.9164,0.9156,0.9134,0.9127,0.9095,0.9074,0.9071,0.9066,0.9044,0.9033,0.9022,0.901,0.8975,0.896,0.8962,0.8946,0.8959,0.896,0.8956,0.8886,0.8884,0.8972,0.8972,0.8972,0.8972,0.8972,0.8972,0.9229,0.9236,0.9214,0.9212,0.9191,0.9186,0.9176,0.9162,0.9145,0.9134,0.9124,0.9102,0.9075,0.9057,0.9044,0.9034,0.9031,0.905,0.9035,0.8971,0.8961,0.8951,0.8949,0.9049,0.9049,0.9106,0.9106,0.9107]}]]